Date String (YYYY-MM-DD hh:mm:ss) UTC,Instrument flags,absolute air pressure of the measurement (hPa),sample flow rate (lpm),inlet stack bypass flow (lpm),air temperature of the measurement (°C),ambient temperature measured by the external sensor (°C),aerosol sample conditioner tube jacket temperature (°C),OPC LED temperature (°C),internal box temperature (°C),relative humidity of the measurement (%),span deviation,mass concentration of particles derived from Lorenz-Mie calculation of OPC scattering (μg/m³),mass concentration of particles derived from Lorenz-Mie calculation of OPC scattering (μg/m³),mass concentration of particles derived from Lorenz-Mie calculation of OPC scattering (μg/m³)
DateTimeUTC,F1_M11,P_M11,Q1_M11,Q2_M11,T1_M11,T2_M11,T3_M11,T4_M11,T5_M11,U1_M11,ZSPAN_M11,X0_M11,X2_M11,X1_M11
2023-12-28 13:00:00,SystemResetWarning,0831.6,5.00,000.00,018.7,017.7,000.0,027.1,020.0,8.4,0000.0,0000.73,0000.53,0000.46
2023-12-28 13:01:00,SystemResetWarning,0831.6,5.01,000.00,018.7,017.7,000.0,027.1,020.0,8.4,0000.0,0000.72,0000.53,0000.46
2023-12-28 13:02:00,SystemResetWarning,0831.6,5.00,000.00,018.7,017.6,000.0,027.1,020.0,8.4,0000.0,0000.71,0000.53,0000.45
2023-12-28 13:03:00,SystemResetWarning,0831.7,5.00,000.00,018.7,017.6,000.0,027.1,020.0,8.4,0000.0,0000.74,0000.54,0000.46
2023-12-28 13:04:00,SystemResetWarning,0831.7,5.00,000.00,018.7,017.6,000.0,027.1,020.0,8.4,0000.0,0000.83,0000.58,0000.47
2023-12-28 13:05:00,SystemResetWarning,0831.7,5.00,000.00,018.7,017.6,000.0,027.1,020.0,8.3,0000.0,0000.84,0000.58,0000.47
2023-12-28 13:06:00,SystemResetWarning,0831.7,5.00,000.00,018.7,017.5,000.0,027.1,020.0,8.3,0000.0,0000.81,0000.57,0000.47
2023-12-28 13:07:00,SystemResetWarning,0831.7,5.00,000.00,018.7,017.5,000.0,027.1,020.0,8.3,0000.0,0000.80,0000.57,0000.47
2023-12-28 13:08:00,SystemResetWarning,0831.8,5.00,000.00,018.7,017.5,000.0,027.1,020.0,8.3,0000.0,0000.77,0000.56,0000.47
2023-12-28 13:09:00,SystemResetWarning,0832.0,5.00,000.00,018.7,017.4,000.0,027.1,020.0,8.4,0000.0,0000.77,0000.56,0000.47
2023-12-28 13:10:00,SystemResetWarning,0832.0,5.00,000.00,018.7,017.4,000.0,027.1,020.0,8.4,0000.0,0000.78,0000.58,0000.47
2023-12-28 13:11:00,SystemResetWarning,0832.0,5.00,000.00,018.7,017.4,000.0,027.1,020.0,8.4,0000.0,0000.83,0000.60,0000.48
2023-12-28 13:12:00,SystemResetWarning,0831.9,5.00,000.00,018.7,017.4,000.0,027.1,020.0,8.3,0000.0,0000.85,0000.62,0000.48
2023-12-28 13:13:00,SystemResetWarning,0831.8,5.00,000.00,018.7,017.4,000.0,027.1,020.0,8.1,0000.0,0002.02,0000.63,0000.48
2023-12-28 13:14:00,SystemResetWarning,0831.9,5.01,000.00,018.7,017.4,000.0,027.1,020.0,8.0,0000.0,0002.20,0000.63,0000.49
2023-12-28 13:15:00,SystemResetWarning,0831.9,5.01,000.00,018.7,017.4,000.0,027.1,020.0,7.9,0000.0,0002.21,0000.63,0000.48
2023-12-28 13:16:00,SystemResetWarning,0831.9,4.99,000.00,018.7,017.4,000.0,027.1,020.0,7.9,0000.0,0002.18,0000.61,0000.49
2023-12-28 13:17:00,SystemResetWarning,0831.9,4.99,000.00,018.7,017.4,000.0,027.1,020.1,7.9,0000.0,0002.76,0000.62,0000.49
2023-12-28 13:18:00,SystemResetWarning,0831.9,5.01,000.00,018.7,017.8,000.0,027.1,020.4,7.9,0000.0,0003.42,0000.64,0000.50
2023-12-28 13:19:00,SystemResetWarning,0832.0,5.01,000.00,018.9,018.6,000.0,027.1,020.8,7.9,0000.0,0003.43,0000.64,0000.50
2023-12-28 13:20:00,SystemResetWarning,0832.0,4.99,000.00,019.0,018.8,000.0,027.1,020.6,7.9,0000.0,0003.44,0000.64,0000.50
2023-12-28 13:21:00,SystemResetWarning,0832.0,5.00,000.00,019.0,018.8,000.0,027.1,020.4,7.8,0000.0,0003.40,0000.62,0000.49
2023-12-28 13:22:00,SystemResetWarning,0832.0,5.00,000.00,019.0,018.6,000.0,027.1,020.3,7.8,0000.0,0003.42,0000.60,0000.49
2023-12-28 13:23:00,SystemResetWarning,0832.0,5.01,000.00,018.9,018.5,000.0,027.1,020.2,7.8,0000.0,0003.50,0000.62,0000.48
2023-12-28 13:24:00,SystemResetWarning,0832.0,5.00,000.00,018.9,018.4,000.0,027.1,020.2,7.9,0000.0,0002.28,0000.62,0000.47
2023-12-28 13:25:00,SystemResetWarning,0832.0,5.00,000.00,018.9,018.3,000.0,027.1,020.1,7.8,0000.0,0002.12,0000.59,0000.46
2023-12-28 13:26:00,SystemResetWarning,0832.0,5.00,000.00,018.8,018.2,000.0,027.1,020.1,7.8,0000.0,0002.03,0000.56,0000.45
2023-12-28 13:27:00,SystemResetWarning,0832.0,5.00,000.00,018.8,018.1,000.0,027.1,020.1,7.7,0000.0,0002.03,0000.55,0000.43
2023-12-28 13:28:00,SystemResetWarning,0832.0,5.00,000.00,018.8,018.1,000.0,027.1,020.1,7.8,0000.0,0001.36,0000.53,0000.42
2023-12-28 13:29:00,SystemResetWarning,0832.0,5.01,000.00,018.8,018.0,000.0,027.1,020.0,8.0,0000.0,0000.81,0000.53,0000.40
2023-12-28 13:30:00,SystemResetWarning,0832.0,5.01,000.00,018.8,018.0,000.0,027.1,020.0,8.1,0000.0,0000.83,0000.53,0000.40
2023-12-28 13:31:00,SystemResetWarning,0832.0,5.00,000.00,018.8,018.0,000.0,027.1,020.0,8.2,0000.0,0000.79,0000.51,0000.39
2023-12-28 13:32:00,SystemResetWarning,0832.0,4.99,000.00,018.8,018.0,000.0,027.1,020.0,8.2,0000.0,0000.82,0000.52,0000.38
2023-12-28 13:33:00,SystemResetWarning,0832.0,5.00,000.00,018.8,018.0,000.0,027.1,020.0,8.2,0000.0,0000.76,0000.51,0000.38
2023-12-28 13:34:00,SystemResetWarning,0832.0,4.99,000.00,018.8,018.0,000.0,027.1,020.0,8.2,0000.0,0000.69,0000.48,0000.38
2023-12-28 13:35:00,SystemResetWarning,0832.0,5.00,000.00,018.7,018.0,000.0,027.1,020.0,8.3,0000.0,0000.71,0000.50,0000.39
2023-12-28 13:36:00,SystemResetWarning,0832.0,5.01,000.00,018.7,017.9,000.0,027.1,020.0,8.2,0000.0,0000.70,0000.49,0000.39
2023-12-28 13:37:00,SystemResetWarning,0832.1,5.01,000.00,018.7,017.9,000.0,027.1,020.0,8.4,0000.0,0000.74,0000.50,0000.38
2023-12-28 13:38:00,SystemResetWarning,0832.1,5.01,000.00,018.7,017.9,000.0,027.1,020.0,8.6,0000.0,0000.75,0000.51,0000.39
2023-12-28 13:39:00,SystemResetWarning,0832.1,5.00,000.00,018.7,017.9,000.0,027.1,020.0,8.7,0000.0,0000.75,0000.51,0000.39
2023-12-28 13:40:00,SystemResetWarning,0832.1,5.00,000.00,018.7,017.9,000.0,027.1,020.0,8.7,0000.0,0000.75,0000.52,0000.39
2023-12-28 13:41:00,SystemResetWarning,0832.1,5.00,000.00,018.7,017.9,000.0,027.1,020.0,8.4,0000.0,0000.73,0000.51,0000.40
2023-12-28 13:42:00,SystemResetWarning,0832.1,5.00,000.00,018.7,017.9,000.0,027.1,020.0,8.3,0000.0,0000.75,0000.52,0000.41
2023-12-28 13:43:00,SystemResetWarning,0832.1,5.00,000.00,018.7,017.8,000.0,027.1,020.0,8.2,0000.0,0000.73,0000.51,0000.41
2023-12-28 13:44:00,SystemResetWarning,0832.2,5.00,000.00,018.7,017.8,000.0,027.1,020.0,8.2,0000.0,0000.78,0000.55,0000.42
2023-12-28 13:45:00,SystemResetWarning,0832.2,5.00,000.00,018.7,017.8,000.0,027.1,020.0,8.3,0000.0,0000.77,0000.55,0000.42
2023-12-28 13:46:00,SystemResetWarning,0832.2,5.00,000.00,018.7,017.7,000.0,027.1,020.0,8.3,0000.0,0000.76,0000.55,0000.43
2023-12-28 13:47:00,SystemResetWarning,0832.2,5.00,000.00,018.7,017.7,000.0,027.1,020.0,8.3,0000.0,0000.81,0000.57,0000.44
2023-12-28 13:48:00,SystemResetWarning,0832.2,5.00,000.00,018.7,017.7,000.0,027.1,020.0,8.3,0000.0,0000.89,0000.61,0000.47
2023-12-28 13:49:00,SystemResetWarning,0832.2,5.00,000.00,018.7,017.6,000.0,027.1,020.0,8.3,0000.0,0000.92,0000.63,0000.48
2023-12-28 13:50:00,SystemResetWarning,0832.2,5.00,000.00,018.7,017.6,000.0,027.1,020.0,8.3,0000.0,0000.94,0000.64,0000.50
2023-12-28 13:51:00,SystemResetWarning,0832.2,5.00,000.00,018.7,017.6,000.0,027.1,020.0,8.4,0000.0,0000.96,0000.65,0000.51
2023-12-28 13:52:00,SystemResetWarning,0832.3,5.00,000.00,018.7,017.6,000.0,027.1,020.0,8.4,0000.0,0000.93,0000.64,0000.51
2023-12-28 13:53:00,SystemResetWarning,0832.3,5.00,000.00,018.7,017.6,000.0,027.1,020.0,8.5,0000.0,0000.92,0000.63,0000.50
2023-12-28 13:54:00,SystemResetWarning,0832.3,5.00,000.00,018.7,017.6,000.0,027.1,020.0,8.5,0000.0,0000.94,0000.64,0000.51
2023-12-28 13:55:00,SystemResetWarning,0832.2,5.00,000.00,018.7,017.6,000.0,027.1,020.0,8.5,0000.0,0000.87,0000.60,0000.49
2023-12-28 13:56:00,SystemResetWarning,0832.3,5.00,000.00,018.7,017.6,000.0,027.1,020.0,8.4,0000.0,0000.89,0000.61,0000.49
2023-12-28 13:57:00,SystemResetWarning,0832.3,5.00,000.00,018.7,017.5,000.0,027.1,020.0,8.4,0000.0,0000.88,0000.60,0000.49
2023-12-28 13:58:00,SystemResetWarning,0832.3,5.00,000.00,018.7,017.5,000.0,027.1,020.0,8.4,0000.0,0000.86,0000.59,0000.48
2023-12-28 13:59:00,SystemResetWarning,0832.3,5.00,000.00,018.6,017.5,000.0,027.1,020.0,8.4,0000.0,0000.87,0000.56,0000.47
